Home   Weather   Brăila   Past weeks

Flag for Romania Past Weather in Brăila, Romania — Yesterday and Last 2 Weeks

Now
52 °F

Scattered clouds.


Feels Like: 51 °F
Forecast: 37 / 65 °F
Wind: 5 mph from South

Location: Galati

Current Time: Apr 24, 2017 at 8:09:53 pm

Latest Report: Apr 24, 2017 at 7:00 pm


Visibility: 13 mi

Pressure: 30.15 "Hg

Humidity: 54%

Dew Point: 35 °F

Location of BrăilaLocation

Past Weather in Brăila — Graph

°F

Brăila Temperature Yesterday

Maximum temperature yesterday: 54 °F (at 12:00 pm)
Minimum temperature yesterday: 38 °F (at 6:00 am)
Average temperature yesterday: 44 °F

High & Low Weather Summary for the Past Weeks

 TemperatureHumidityPressure
High71 °F (Apr 11, 5:00 pm)100% (Apr 20, 5:00 pm)30.30 "Hg (Apr 20, 5:00 pm)
Low32 °F (Apr 20, 7:00 pm)23% (Apr 10, 6:00 pm)29.72 "Hg (Apr 13, 8:00 pm)
Average48 °F66%29.99 "Hg
* Reported Apr 9 6:00 pm — Apr 24 6:00 pm, Brăila, Weather by CustomWeather, © 2017

Note: Actual official high and low records may vary slightly from our data, if they occured in-between our weather recording intervals... More about our weather records

Advertising

Brăila Weather History for the Previous 24 Hours

Scroll right to see more
 ConditionsComfort  
Time TempWeatherWind HumidityBarometerVisibility
6:00 pm
Mon, Apr 24
54 °FScattered clouds.3 mph45%30.14 "Hg12 mi
5:00 pm57 °FScattered clouds.1 mph37%30.13 "Hg12 mi
4:00 pm53 °FPartly sunny.2 mph44%30.14 "Hg12 mi
3:00 pm51 °FPartly sunny.2 mph49%30.16 "Hg12 mi
2:00 pm54 °FPartly sunny.2 mph39%30.15 "Hg12 mi
1:00 pm54 °FPassing clouds.1 mph37%30.16 "Hg12 mi
12:00 pm51 °FPassing clouds.3 mph38%30.16 "Hg12 mi
11:00 am50 °FPassing clouds.3 mph43%30.16 "Hg12 mi
10:00 am48 °FPassing clouds.5 mph56%30.14 "Hg12 mi
9:00 am45 °FPassing clouds.2 mph65%30.13 "Hg12 mi
8:00 am40 °FScattered clouds.1 mph78%30.11 "Hg6 mi
7:00 am38 °FScattered clouds.2 mph78%30.09 "Hg6 mi
6:00 am38 °FPassing clouds.2 mph79%30.07 "Hg6 mi
5:00 am36 °FPassing clouds.2 mph85%30.07 "Hg6 mi
4:00 am36 °FPassing clouds.2 mph91%30.06 "Hg6 mi
3:00 am36 °FPassing clouds.2 mph91%30.06 "Hg6 mi
2:00 am37 °FClear.1 mph90%30.05 "Hg6 mi
1:00 am39 °FClear.3 mph87%30.04 "Hg6 mi
12:00 am39 °FClear.3 mph86%30.03 "Hg6 mi
11:00 pm
Sun, Apr 23
41 °FPassing clouds.1 mph85%30.02 "Hg6 mi
10:00 pm41 °FPassing clouds.1 mph88%30.00 "Hg6 mi
9:00 pm42 °FOvercast.1 mph83%29.97 "Hg6 mi
8:00 pm44 °FOvercast.2 mph77%29.96 "Hg6 mi
Weather by CustomWeather, © 2017

See weather overviewHow to use our weather pages